SCP
0 0 0 0 0 0 0 0 0 0 0 0 0 0 0 0 0 0 0 0 0 0 0 0 0 0 1 1 1 1 2 3 2 2 1 1 1 1 1 0 0 0 0
0 0 0 0 0 0 0 0 0 0 0 0 0 0 0 0 0 0 0 0 0 0 0 0 0 0 0 1 1 1 2 3 3 2 2 1 1 1 1 1 0 0 0
0 0 0 0 0 0 0 0 0 0 0 0 0 0 0 0 0 0 0 0 0 0 0 0 0 0 0 1 2 2 2 2 2 3 2 2 1 1 1 1 1 0 0
0 0 0 0 0 0 0 0 0 0 0 0 0 0 0 0 0 0 0 0 0 0 0 0 0 0 0 0 2 2 1 2 1 1 1 2 2 1 1 1 1 1 0
0 0 0 0 0 0 0 0 0 0 0 0 0 0 0 0 0 0 0 0 0 0 0 0 0 0 0 0 0 1 2 1 1 1 1 1 1 2 1 1 1 1 0
0 0 0 0 0 0 0 0 0 0 0 0 0 0 0 0 0 0 0 0 0 0 0 0 0 0 0 0 0 0 1 2 2 2 2 1 1 1 1 1 1 1 0
0 0 0 0 0 0 0 0 0 0 0 0 0 0 0 0 0 0 0 0 0 0 0 0 0 0 0 0 0 0 0 1 1 0 1 1 1 1 1 0 1 1 1
0 0 0 0 0 0 0 0 0 0 0 0 0 0 0 0 0 0 0 0 0 0 0 0 0 0 0 0 0 0 0 1 0 1 0 0 0 1 1 1 1 1 1
0 0 0 0 0 0 0 0 0 0 0 0 0 0 0 0 0 0 0 0 0 0 0 0 0 0 0 0 0 0 0 1 0 1 1 0 1 0 0 1 1 1 1
0 0 0 0 0 0 0 0 0 0 0 0 0 0 0 0 0 0 0 0 0 0 0 0 0 0 0 0 0 0 1 1 1 1 1 1 0 0 0 0 0 0 1
0 0 0 0 0 0 0 0 0 0 0 0 0 0 0 0 0 0 0 0 0 0 0 0 0 0 0 0 0 0 1 1 1 1 1 1 0 0 0 0 0 0 1
0 0 0 0 0 0 0 0 0 0 0 0 0 0 0 0 0 0 0 0 0 0 0 0 0 0 0 0 0 0 1 1 1 1 0 0 0 1 0 0 0 0 1
0 0 0 0 0 0 0 0 0 0 0 0 0 0 0 0 0 0 0 0 0 0 0 0 0 0 0 0 0 0 0 0 0 0 0 0 0 0 0 0 0 0 0
0 0 0 0 0 0 0 0 0 0 0 0 0 0 0 0 0 0 0 0 0 0 0 0 0 0 0 0 0 0 0 0 0 0 0 0 0 0 0 0 0 0 -0
0 0 0 0 0 0 0 0 0 0 0 0 0 0 0 0 0 0 0 0 0 0 0 -0 0 0 0 0 0 0 0 0 0 0 0 0 0 0 0 0 0 0 0
0 0 0 0 0 0 0 0 0 0 0 0 0 0 0 0 0 0 0 0 0 0 0 0 0 0 0 0 0 0 0 0 0 0 0 0 0 0 0 0 -0 0 0
0 0 0 0 0 0 0 0 0 0 0 0 0 0 0 0 0 0 0 0 0 0 -0 0 0 0 0 0 0 0 0 0 0 0 0 0 0 0 0 0 0 0 0
0 0 0 0 0 0 0 0 0 0 0 0 0 0 0 0 0 0 0 0 0 -0 0 0 0 0 0 0 0 0 0 0 0 0 0 0 0 0 0 0 0 0 0
0 0 0 0 0 0 0 0 0 0 0 0 0 -0 0 0 0 0 0 0 0 0 -0 0 0 0 0 0 0 0 0 0 0 0 0 0 0 0 0 0 0 0 0
0 0 0 0 0 0 0 0 0 0 0 0 0 -0 0 0 0 0 0 0 0 0 0 0 0 0 0 0 0 0 0 0 0 0 0 0 0 0 0 0 0 0 0
0 0 0 0 0 0 0 0 0 0 0 0 0 -0 0 0 -0 0 0 0 0 0 0 0 0 0 0 0 0 0 0 0 0 0 0 0 0 0 0 0 0 0 0
0 0 0 0 0 0 0 0 0 0 0 0 0 -0 -0 -0 -0 -0 -0 -0 -0 -0 0 0 0 0 0 0 0 0 0 0 0 0 0 0 0 0 0 0 0 0 0
0 0 0 0 -0 0 0 0 -0 0 0 0 0 -0 -0 0 -0 0 0 -0 -0 -0 -0 -0 -0 -0 0 0 0 0 0 0 0 0 0 0 0 0 0 0 0 0 0
0 0 0 -0 -0 0 0 0 -0 -0 0 0 0 0 0 0 0 0 0 0 0 0 -0 -0 -0 -0 0 0 0 0 0 0 0 0 0 0 0 0 0 0 0 0 0
0 0 0 -0 -0 -0 0 0 0 0 0 0 0 0 0 0 -0 0 0 0 0 0 0 -0 -0 -0 -0 -0 0 0 0 0 0 0 0 0 0 0 0 0 0 0 0
0 0 0 0 0 0 0 0 0 0 0 0 0 0 0 0 0 0 0 0 0 0 0 0 0 0 0 0 0 0 0 0 0 0 0 0 0 0 0 0 0 0 0
Wind_Speed_500mb
31 35 39 45 46 50 49 51 54 60 67 70 73 71 80 59 65 70 64 60 66 72 72 76 77 74 62 63 74 76 75 75 79 77 70 65 69 68 68 67 64 61 56
39 45 44 44 44 44 46 49 56 62 67 75 81 81 73 74 85 74 80 79 79 85 82 79 80 75 68 63 69 75 79 73 79 82 78 71 69 72 73 73 71 69 65
40 39 36 37 38 41 50 56 62 68 75 80 87 80 79 91 95 104 108 97 79 87 90 82 80 80 72 60 70 70 79 81 86 88 84 78 76 75 75 77 77 75 73
31 32 40 44 47 52 59 64 70 75 76 75 80 88 95 98 94 79 71 76 80 79 67 65 72 75 69 64 60 65 77 83 81 90 90 85 80 79 77 79 81 80 77
44 45 50 57 63 70 76 85 91 87 85 82 80 80 81 81 81 81 78 69 58 54 59 57 59 65 72 74 67 65 66 70 77 80 85 91 89 85 79 79 83 81 79
51 56 61 68 79 87 81 76 73 73 73 76 83 88 87 82 77 70 67 71 71 63 55 54 54 55 53 54 62 70 77 67 68 70 80 91 85 85 85 79 79 81 81
59 66 74 75 73 71 70 71 75 76 76 72 78 85 91 79 37 47 36 48 62 72 70 62 49 45 38 37 45 53 60 62 71 74 76 84 81 80 88 84 78 73 77
66 69 69 69 72 76 77 75 69 73 74 67 65 72 42 58 7 12 47 56 55 56 63 64 66 62 51 38 41 46 56 55 73 74 71 77 76 74 92 85 80 68 69
67 67 71 76 78 76 74 72 71 65 70 63 52 37 23 19 61 50 57 53 58 56 51 49 50 50 55 48 50 37 33 53 68 77 69 79 81 81 84 77 76 67 71
71 74 70 66 63 64 63 61 61 60 58 60 52 48 51 59 42 43 41 75 58 41 52 57 52 38 44 33 38 35 28 26 53 65 72 72 66 58 72 58 67 78 77
67 62 59 57 57 57 59 58 60 57 54 55 55 55 57 60 62 57 57 52 59 71 56 58 42 37 24 24 33 26 21 22 33 53 60 69 62 46 66 81 95 93 75
60 55 53 54 57 58 57 58 58 57 57 56 56 57 55 60 59 54 53 74 62 55 64 60 52 38 21 18 28 22 17 15 18 27 44 55 54 70 69 55 58 94 71
56 59 58 59 56 55 57 59 60 60 57 55 56 57 59 60 64 67 63 65 59 60 62 61 47 37 13 8 26 14 25 30 30 29 39 51 52 54 62 59 51 55 59
56 57 57 58 58 57 57 57 57 55 52 52 53 54 57 56 52 53 56 53 63 48 53 47 43 29 14 12 21 16 19 24 29 29 34 43 45 52 56 56 55 72 77
57 59 60 58 53 53 51 52 52 51 49 50 52 52 53 55 50 44 38 38 45 42 43 44 43 31 9 10 27 16 11 19 24 29 34 32 33 31 47 59 49 45 50
58 58 59 59 53 49 48 49 52 49 48 48 47 48 51 46 39 35 33 34 37 42 41 45 45 32 15 15 25 20 9 12 14 12 10 7 19 19 28 39 42 35 36
55 57 58 56 51 50 49 49 50 49 49 47 42 42 46 36 28 27 25 28 31 31 38 41 38 27 9 7 16 12 4 4 4 4 7 11 16 17 21 30 30 33 34
51 58 56 57 55 52 53 53 52 50 51 47 42 37 37 36 30 23 20 22 24 23 33 44 36 16 8 7 10 15 4 9 10 13 10 7 6 6 9 11 10 16 32
48 58 56 57 57 55 56 53 52 52 48 43 40 34 34 31 29 21 16 16 18 24 32 40 38 14 8 6 3 4 6 6 0 4 4 2 4 5 6 6 6 6 4
37 48 56 50 51 52 54 54 56 57 57 51 46 38 30 29 26 20 16 13 17 25 32 32 30 16 10 10 7 9 5 4 4 4 1 3 4 4 6 4 7 10 12
33 35 42 46 42 47 51 53 53 54 56 60 66 58 43 34 28 18 11 9 14 23 33 36 28 21 13 19 19 15 8 7 7 8 3 4 5 8 9 9 9 12 17
25 31 35 40 42 43 43 43 48 55 55 59 62 59 64 52 38 30 21 15 14 21 27 26 23 20 4 14 11 16 16 17 14 17 10 10 11 9 7 6 8 7 11
26 29 26 36 40 36 40 40 43 44 50 56 59 60 57 56 55 48 35 22 21 21 20 18 16 10 4 6 16 19 22 23 23 17 20 20 16 11 10 8 9 10 14
27 27 18 30 39 33 33 38 40 42 38 44 50 53 54 57 46 43 44 46 50 51 47 37 22 15 8 5 13 17 19 22 24 18 18 11 15 14 17 19 19 13 13
24 21 20 35 37 41 29 30 36 37 30 36 39 45 47 46 43 41 28 30 36 40 42 43 42 39 33 20 10 5 10 11 14 20 10 13 18 20 21 19 16 15 12
21 25 30 33 31 31 28 25 33 36 32 37 35 37 42 40 38 32 32 30 33 34 32 33 34 38 37 32 25 13 13 14 20 12 12 14 18 21 19 20 15 13 13
Wind_Direction_500mb
324 324 321 322 325 322 321 313 307 303 302 302 299 303 302 297 296 299 297 292 286 279 273 270 267 269 274 266 261 261 257 259 253 257 261 266 259 253 248 243 240 237 235
312 316 313 313 314 315 310 301 295 293 291 291 292 296 296 294 296 294 294 288 280 277 275 270 266 265 268 266 259 258 260 264 257 256 258 260 260 255 251 247 242 240 236
299 297 297 293 288 285 286 286 285 283 286 287 290 291 288 289 289 290 293 292 288 283 276 274 271 268 262 266 261 259 257 260 261 259 259 259 259 255 253 250 246 242 239
287 285 287 287 288 289 291 292 293 293 292 289 287 286 286 288 291 292 293 291 289 287 283 281 272 268 265 262 265 263 259 258 264 260 258 260 260 256 252 251 247 245 242
288 288 289 292 294 294 294 294 296 297 297 298 299 299 298 297 295 292 289 286 292 295 296 294 285 279 273 266 260 261 262 258 257 254 257 258 261 257 253 252 247 246 245
293 292 289 290 292 297 301 303 305 304 302 300 298 296 297 298 299 296 289 282 284 285 286 285 286 286 279 274 271 268 263 263 258 257 258 261 258 257 253 250 244 244 245
291 295 299 302 305 308 309 308 306 303 302 304 307 305 305 309 296 302 294 285 281 277 275 279 283 277 285 287 278 263 258 262 255 254 263 244 256 255 253 249 243 244 245
303 308 310 310 309 307 306 305 304 305 304 307 309 311 315 310 293 260 295 294 291 285 281 283 284 283 282 294 294 266 259 250 248 253 250 250 256 259 256 256 242 246 245
314 315 311 308 306 304 304 305 305 306 307 310 312 298 309 286 307 314 309 314 311 305 299 291 283 288 280 287 296 270 267 247 245 246 254 249 252 251 250 257 260 253 245
314 312 311 308 307 308 311 313 315 314 312 310 307 293 281 280 294 305 299 306 312 310 301 302 296 299 283 294 296 271 272 280 246 240 245 251 252 248 265 265 248 252 243
318 319 321 324 323 325 324 322 318 316 311 307 302 299 296 293 289 281 292 300 299 305 304 310 310 306 283 306 309 274 269 279 271 243 244 251 258 259 263 261 258 279 245
335 336 334 334 333 331 327 325 321 316 312 305 300 297 293 287 282 283 288 298 300 301 308 301 312 303 279 296 318 264 246 234 263 251 243 247 257 256 260 270 239 259 247
343 344 340 336 331 329 328 326 322 317 314 306 301 296 292 285 283 285 284 291 292 300 300 308 320 321 261 330 329 270 224 222 227 236 235 242 244 245 256 255 257 230 243
351 347 340 337 336 332 330 327 323 322 319 313 308 302 299 294 290 286 283 287 291 295 302 303 319 331 271 277 332 291 233 225 230 236 250 248 246 246 252 252 244 243 236
355 349 345 340 339 339 337 335 332 329 325 321 318 313 307 304 297 290 282 277 280 285 297 311 307 334 338 272 344 323 234 227 230 234 242 254 255 243 241 246 239 234 229
359 356 352 350 348 346 347 346 340 336 329 328 327 325 322 313 300 292 281 275 273 277 284 291 308 317 349 2 333 326 261 225 231 201 209 189 202 225 241 235 237 244 242
4 2 2 359 357 356 355 353 351 346 339 334 331 332 337 329 306 296 288 277 277 276 276 292 298 318 338 339 335 329 337 210 200 182 208 225 229 238 244 248 251 240 235
8 9 9 7 7 7 7 3 357 358 354 349 343 337 339 340 333 314 293 284 283 279 270 283 310 323 297 347 344 17 161 98 85 100 96 61 18 347 318 305 301 250 220
17 15 13 13 13 18 19 17 19 17 11 5 -0 346 349 347 350 340 310 291 283 292 302 301 305 314 277 259 333 76 133 78 69 204 213 238 293 286 256 234 224 159 163
13 7 10 14 14 21 23 26 29 32 32 28 22 11 356 349 347 342 335 313 298 306 320 335 327 333 220 253 224 209 174 226 216 214 208 178 190 264 257 200 187 209 187
353 358 3 13 19 23 23 24 27 29 33 34 36 37 33 25 17 2 352 358 332 327 326 330 346 26 205 223 213 209 207 226 265 239 192 190 227 187 174 156 165 167 176
353 360 7 11 17 17 18 22 24 30 35 35 36 36 42 40 33 35 35 10 347 331 330 340 358 32 327 234 222 223 235 232 238 251 229 241 208 205 186 180 171 168 170
345 352 3 9 2 9 14 12 19 24 26 29 34 36 38 42 46 48 53 52 46 40 24 358 355 356 308 216 236 233 245 250 241 244 223 226 222 197 171 165 162 174 184
355 360 12 356 353 352 0 8 9 11 23 28 27 29 26 28 35 48 53 56 57 61 58 54 45 25 6 258 238 227 236 230 231 237 195 199 187 170 151 138 126 135 163
8 16 346 335 346 351 345 355 359 359 12 16 18 20 18 18 19 29 37 48 51 51 49 48 47 52 57 49 73 126 162 189 180 167 126 138 147 146 145 146 139 136 135
11 356 346 337 350 4 356 347 0 357 5 5 4 5 8 2 3 18 32 48 55 50 45 45 46 46 39 43 54 84 112 123 131 124 124 134 176 162 168 175 179 181 194
Wind_Speed_850mb
31 35 39 45 46 50 49 51 54 60 67 70 73 71 80 59 65 70 64 60 66 72 72 76 77 74 62 63 74 76 75 75 79 77 70 65 69 68 68 67 64 61 56
39 45 44 44 44 44 46 49 56 62 67 75 81 81 73 74 85 74 80 79 79 85 82 79 80 75 68 63 69 75 79 73 79 82 78 71 69 72 73 73 71 69 65
40 39 36 37 38 41 50 56 62 68 75 80 87 80 79 91 95 104 108 97 79 87 90 82 80 80 72 60 70 70 79 81 86 88 84 78 76 75 75 77 77 75 73
31 32 40 44 47 52 59 64 70 75 76 75 80 88 95 98 94 79 71 76 80 79 67 65 72 75 69 64 60 65 77 83 81 90 90 85 80 79 77 79 81 80 77
44 45 50 57 63 70 76 85 91 87 85 82 80 80 81 81 81 81 78 69 58 54 59 57 59 65 72 74 67 65 66 70 77 80 85 91 89 85 79 79 83 81 79
51 56 61 68 79 87 81 76 73 73 73 76 83 88 87 82 77 70 67 71 71 63 55 54 54 55 53 54 62 70 77 67 68 70 80 91 85 85 85 79 79 81 81
59 66 74 75 73 71 70 71 75 76 76 72 78 85 91 79 37 47 36 48 62 72 70 62 49 45 38 37 45 53 60 62 71 74 76 84 81 80 88 84 78 73 77
66 69 69 69 72 76 77 75 69 73 74 67 65 72 42 58 7 12 47 56 55 56 63 64 66 62 51 38 41 46 56 55 73 74 71 77 76 74 92 85 80 68 69
67 67 71 76 78 76 74 72 71 65 70 63 52 37 23 19 61 50 57 53 58 56 51 49 50 50 55 48 50 37 33 53 68 77 69 79 81 81 84 77 76 67 71
71 74 70 66 63 64 63 61 61 60 58 60 52 48 51 59 42 43 41 75 58 41 52 57 52 38 44 33 38 35 28 26 53 65 72 72 66 58 72 58 67 78 77
67 62 59 57 57 57 59 58 60 57 54 55 55 55 57 60 62 57 57 52 59 71 56 58 42 37 24 24 33 26 21 22 33 53 60 69 62 46 66 81 95 93 75
60 55 53 54 57 58 57 58 58 57 57 56 56 57 55 60 59 54 53 74 62 55 64 60 52 38 21 18 28 22 17 15 18 27 44 55 54 70 69 55 58 94 71
56 59 58 59 56 55 57 59 60 60 57 55 56 57 59 60 64 67 63 65 59 60 62 61 47 37 13 8 26 14 25 30 30 29 39 51 52 54 62 59 51 55 59
56 57 57 58 58 57 57 57 57 55 52 52 53 54 57 56 52 53 56 53 63 48 53 47 43 29 14 12 21 16 19 24 29 29 34 43 45 52 56 56 55 72 77
57 59 60 58 53 53 51 52 52 51 49 50 52 52 53 55 50 44 38 38 45 42 43 44 43 31 9 10 27 16 11 19 24 29 34 32 33 31 47 59 49 45 50
58 58 59 59 53 49 48 49 52 49 48 48 47 48 51 46 39 35 33 34 37 42 41 45 45 32 15 15 25 20 9 12 14 12 10 7 19 19 28 39 42 35 36
55 57 58 56 51 50 49 49 50 49 49 47 42 42 46 36 28 27 25 28 31 31 38 41 38 27 9 7 16 12 4 4 4 4 7 11 16 17 21 30 30 33 34
51 58 56 57 55 52 53 53 52 50 51 47 42 37 37 36 30 23 20 22 24 23 33 44 36 16 8 7 10 15 4 9 10 13 10 7 6 6 9 11 10 16 32
48 58 56 57 57 55 56 53 52 52 48 43 40 34 34 31 29 21 16 16 18 24 32 40 38 14 8 6 3 4 6 6 0 4 4 2 4 5 6 6 6 6 4
37 48 56 50 51 52 54 54 56 57 57 51 46 38 30 29 26 20 16 13 17 25 32 32 30 16 10 10 7 9 5 4 4 4 1 3 4 4 6 4 7 10 12
33 35 42 46 42 47 51 53 53 54 56 60 66 58 43 34 28 18 11 9 14 23 33 36 28 21 13 19 19 15 8 7 7 8 3 4 5 8 9 9 9 12 17
25 31 35 40 42 43 43 43 48 55 55 59 62 59 64 52 38 30 21 15 14 21 27 26 23 20 4 14 11 16 16 17 14 17 10 10 11 9 7 6 8 7 11
26 29 26 36 40 36 40 40 43 44 50 56 59 60 57 56 55 48 35 22 21 21 20 18 16 10 4 6 16 19 22 23 23 17 20 20 16 11 10 8 9 10 14
27 27 18 30 39 33 33 38 40 42 38 44 50 53 54 57 46 43 44 46 50 51 47 37 22 15 8 5 13 17 19 22 24 18 18 11 15 14 17 19 19 13 13
24 21 20 35 37 41 29 30 36 37 30 36 39 45 47 46 43 41 28 30 36 40 42 43 42 39 33 20 10 5 10 11 14 20 10 13 18 20 21 19 16 15 12
21 25 30 33 31 31 28 25 33 36 32 37 35 37 42 40 38 32 32 30 33 34 32 33 34 38 37 32 25 13 13 14 20 12 12 14 18 21 19 20 15 13 13
Wind_Direction_850mb
324 324 321 322 325 322 321 313 307 303 302 302 299 303 302 297 296 299 297 292 286 279 273 270 267 269 274 266 261 261 257 259 253 257 261 266 259 253 248 243 240 237 235
312 316 313 313 314 315 310 301 295 293 291 291 292 296 296 294 296 294 294 288 280 277 275 270 266 265 268 266 259 258 260 264 257 256 258 260 260 255 251 247 242 240 236
299 297 297 293 288 285 286 286 285 283 286 287 290 291 288 289 289 290 293 292 288 283 276 274 271 268 262 266 261 259 257 260 261 259 259 259 259 255 253 250 246 242 239
287 285 287 287 288 289 291 292 293 293 292 289 287 286 286 288 291 292 293 291 289 287 283 281 272 268 265 262 265 263 259 258 264 260 258 260 260 256 252 251 247 245 242
288 288 289 292 294 294 294 294 296 297 297 298 299 299 298 297 295 292 289 286 292 295 296 294 285 279 273 266 260 261 262 258 257 254 257 258 261 257 253 252 247 246 245
293 292 289 290 292 297 301 303 305 304 302 300 298 296 297 298 299 296 289 282 284 285 286 285 286 286 279 274 271 268 263 263 258 257 258 261 258 257 253 250 244 244 245
291 295 299 302 305 308 309 308 306 303 302 304 307 305 305 309 296 302 294 285 281 277 275 279 283 277 285 287 278 263 258 262 255 254 263 244 256 255 253 249 243 244 245
303 308 310 310 309 307 306 305 304 305 304 307 309 311 315 310 293 260 295 294 291 285 281 283 284 283 282 294 294 266 259 250 248 253 250 250 256 259 256 256 242 246 245
314 315 311 308 306 304 304 305 305 306 307 310 312 298 309 286 307 314 309 314 311 305 299 291 283 288 280 287 296 270 267 247 245 246 254 249 252 251 250 257 260 253 245
314 312 311 308 307 308 311 313 315 314 312 310 307 293 281 280 294 305 299 306 312 310 301 302 296 299 283 294 296 271 272 280 246 240 245 251 252 248 265 265 248 252 243
318 319 321 324 323 325 324 322 318 316 311 307 302 299 296 293 289 281 292 300 299 305 304 310 310 306 283 306 309 274 269 279 271 243 244 251 258 259 263 261 258 279 245
335 336 334 334 333 331 327 325 321 316 312 305 300 297 293 287 282 283 288 298 300 301 308 301 312 303 279 296 318 264 246 234 263 251 243 247 257 256 260 270 239 259 247
343 344 340 336 331 329 328 326 322 317 314 306 301 296 292 285 283 285 284 291 292 300 300 308 320 321 261 330 329 270 224 222 227 236 235 242 244 245 256 255 257 230 243
351 347 340 337 336 332 330 327 323 322 319 313 308 302 299 294 290 286 283 287 291 295 302 303 319 331 271 277 332 291 233 225 230 236 250 248 246 246 252 252 244 243 236
355 349 345 340 339 339 337 335 332 329 325 321 318 313 307 304 297 290 282 277 280 285 297 311 307 334 338 272 344 323 234 227 230 234 242 254 255 243 241 246 239 234 229
359 356 352 350 348 346 347 346 340 336 329 328 327 325 322 313 300 292 281 275 273 277 284 291 308 317 349 2 333 326 261 225 231 201 209 189 202 225 241 235 237 244 242
4 2 2 359 357 356 355 353 351 346 339 334 331 332 337 329 306 296 288 277 277 276 276 292 298 318 338 339 335 329 337 210 200 182 208 225 229 238 244 248 251 240 235
8 9 9 7 7 7 7 3 357 358 354 349 343 337 339 340 333 314 293 284 283 279 270 283 310 323 297 347 344 17 161 98 85 100 96 61 18 347 318 305 301 250 220
17 15 13 13 13 18 19 17 19 17 11 5 -0 346 349 347 350 340 310 291 283 292 302 301 305 314 277 259 333 76 133 78 69 204 213 238 293 286 256 234 224 159 163
13 7 10 14 14 21 23 26 29 32 32 28 22 11 356 349 347 342 335 313 298 306 320 335 327 333 220 253 224 209 174 226 216 214 208 178 190 264 257 200 187 209 187
353 358 3 13 19 23 23 24 27 29 33 34 36 37 33 25 17 2 352 358 332 327 326 330 346 26 205 223 213 209 207 226 265 239 192 190 227 187 174 156 165 167 176
353 360 7 11 17 17 18 22 24 30 35 35 36 36 42 40 33 35 35 10 347 331 330 340 358 32 327 234 222 223 235 232 238 251 229 241 208 205 186 180 171 168 170
345 352 3 9 2 9 14 12 19 24 26 29 34 36 38 42 46 48 53 52 46 40 24 358 355 356 308 216 236 233 245 250 241 244 223 226 222 197 171 165 162 174 184
355 360 12 356 353 352 0 8 9 11 23 28 27 29 26 28 35 48 53 56 57 61 58 54 45 25 6 258 238 227 236 230 231 237 195 199 187 170 151 138 126 135 163
8 16 346 335 346 351 345 355 359 359 12 16 18 20 18 18 19 29 37 48 51 51 49 48 47 52 57 49 73 126 162 189 180 167 126 138 147 146 145 146 139 136 135
11 356 346 337 350 4 356 347 0 357 5 5 4 5 8 2 3 18 32 48 55 50 45 45 46 46 39 43 54 84 112 123 131 124 124 134 176 162 168 175 179 181 194